CZ-6A DEB

Satellite information

Favourite Embed

Satellite Type and Status

DEBRISIN ORBIT

Key statistics

Satellite CZ-6A DEB at a glance.

Uptime

334

Days in orbit

Revolutions

≈ 15.0

Per day

Orbit

LEO

Low Earth Orbit

Inclination

89.1

Latest

Satellite identification and parameters

Extended collection of information and parameters for CZ-6A DEB.

Object identification

Identified? True

Debris? True

Object name: CZ-6A DEB

International designator: 2024-140RX

Object number (NORAD): 61177

Object ID (CCSDS): 61177

Country: PEOPLES REPUBLIC OF CHINA (PRC)

Current information (Y/N): Y

RCS size: SMALL

Orbital parameters

Period: 95.697 minutes

Inclination: 89.0759 deg

SMA: 6930.405 km

Apoapsis: 637.604 km

Periapsis: 466.936 km

RAAN: 312.972 deg

Eccentricy: 0.012313

Argument of periapsis: 247.5199 deg

Mean anomaly: 111.2963 deg

Mean motion: 15.0475178 rev/day

Mean motion (dot): 0.00040723 rev/day2

B* drag term: 0.0024288 1/REarth

Two-line elements (TLE)

Creation date: July 5, 2025, 10:26 p.m.

Reference frame: TEME

Reference center: EARTH

Epoch: July 5, 2025, 6:48 p.m. UTC

TLE line 0: 0 CZ-6A DEB

TLE line 1: 1 61177U 24140RX 25186.78393395 .00040723 00000-0 24288-2 0 9994

TLE line 2: 2 61177 89.0759 312.9720 0123130 247.5199 111.2963 15.04751780 47117

Live tracking on map

Real-time ground track for satellite CZ-6A DEB.

In-orbit conjunctions

A list of the most updated potential collisions computed for object CZ-6A DEB.

Target Orbit TCA Probability of collision Miss distance Type
COSMOS 1975 LEO 2025-04-28 02:58:17 0.0002873956 716.0 (m) PAYLOAD
FENGYUN 1C DEB SSO 2025-01-23 14:14:59 0.001467819 102.0 (m) DEBRIS
CZ-4B R/B SSO 2024-12-15 15:28:51 0.001988797 63.0 (m) ROCKET BODY
OBJECT E LEO 2024-09-30 14:19:18 0.0005278616 546.0 (m) UNKNOWN
THOR BURNER 2A DEB SSO 2024-09-29 19:44:38 0.0001332683 319.0 (m) DEBRIS

Associated space launch

18 Low Earth Orbit communication satellites with Ku, Q and V band payloads for the G60 constellation operated by Shanghai Spacecom Satellite Technology (SSST) with funding backed by the Shanghai local government. Initial constellation will consist of 1296 satellites by 2027 with long term plans to expand it to 12000 satellites.

CZ-6A DEB was lifted into orbit during the mission ‘Long March 6A | G60 Polar Group 01’, on board a Long March 6A space rocket.

The launch took place on Aug. 6, 2024, 6:42 a.m. from Launch Complex 9A.

For more information about the launch, click the button.

Launch to space Long March 6A | G60 Polar Group 01
Long March 6A | G60 Polar Group 01

Agency: N/A

Status: Launch Successful

Launch date: Aug. 6, 2024, 6:42 a.m. UTC

Rocket: Long March 6A

Launch pad: Launch Complex 9A

Location: Taiyuan Satellite Launch Center, People's Republic of China

...

Latest news about this satellite

News about space launch
Brightness of first Chinese broadband constellation satellites alarms astronomers

The first satellites of a Chinese broadband constellation are significantly brighter than those of Western systems, posing a new challenge for astronomers.

News about space launch
Chinese rocket stage breaks up into cloud of more than 700 pieces of space debris

HELSINKI — A Chinese Long March 6A rocket’s upper stage has fragmented into a cloud of over 700 pieces of space debris, adding to concerns about long-term orbital safety. China […]

News about space launch
China's Thousand Sails Megaconstellation Kicks Off with Dangerous Debris Field

China's Thousand Sails Megaconstellation Kicks Off with Dangerous Debris Field


Newsletter sign-up

Weekly statistics, charts and insights to help you stay on top of the space industry.